GW0254 Weather Reports


Display with metric or nautical units.
time (UTC)temp
F
wind
direction
speed
MPH
gust
MPH
rain 1hr
in
rain 24hr
in
rain mn
in
humidity
%
barometer
mb
20260831000058 71 185 2.0 7.0 0.00 0.00 0.00 33 1021.1
20260830234549 71 180 4.0 10.0 0.00 0.00 0.00 32 1021.1
20260830233046 70 168 3.0 9.0 0.00 0.00 0.00 34 1021.1
20260830231554 70 188 2.0 9.0 0.00 0.00 0.00 32 1021.3
20260830230046 70 188 2.0 10.0 0.00 0.00 0.00 32 1021.4
20260830224552 71 190 3.0 8.0 0.00 0.00 0.00 30 1021.5
20260830223051 72 145 4.0 10.0 0.00 0.00 0.00 29 1021.6
20260830221549 72 188 1.0 10.0 0.00 0.00 0.00 30 1021.8
20260830220047 71 195 3.0 10.0 0.00 0.00 0.00 29 1022.0
20260830214554 71 158 3.0 10.0 0.00 0.00 0.00 28 1022.1
20260830213102 71 188 2.0 7.0 0.00 0.00 0.00 28 1022.3
20260830211545 70 196 4.0 9.0 0.00 0.00 0.00 27 1022.4
20260830210045 70 194 2.0 8.0 0.00 0.00 0.00 28 1022.4
20260830204551 69 186 3.0 9.0 0.00 0.00 0.00 26 1022.6
20260830203051 69 208 4.0 9.0 0.00 0.00 0.00 26 1022.6
20260830201546 69 148 3.0 8.0 0.00 0.00 0.00 25 1022.5
20260830200057 70 184 2.0 9.0 0.00 0.00 0.00 24 1022.6
20260830194558 70 188 1.0 7.0 0.00 0.00 0.00 24 1022.6
20260830193052 69 190 2.0 10.0 0.00 0.00 0.00 24 1022.8
20260830191550 67 159 3.0 7.0 0.00 0.00 0.00 24 1022.9
20260830190045 67 180 3.0 9.0 0.00 0.00 0.00 24 1023.0
20260830184558 67 149 3.0 9.0 0.00 0.00 0.00 23 1023.0
20260830183047 67 192 3.0 7.0 0.00 0.00 0.00 24 1023.1
20260830181548 67 188 2.0 8.0 0.00 0.00 0.00 23 1023.1
20260830180047 65 168 3.0 10.0 0.00 0.00 0.00 22 1023.1
20260830174557 66 195 4.0 8.0 0.00 0.00 0.00 20 1023.1
20260830173048 66 170 2.0 6.0 0.00 0.00 0.00 22 1023.0
20260830171548 65 131 2.0 8.0 0.00 0.00 0.00 22 1022.9
20260830170047 65 184 2.0 5.0 0.00 0.00 0.00 24 1022.8
20260830164550 64 94 2.0 6.0 0.00 0.00 0.00 22 1022.7
20260830163048 64 207 2.0 5.0 0.00 0.00 0.00 31 1022.7
20260830161601 64 214 2.0 5.0 0.00 0.00 0.00 27 1022.7
20260830160046 63 215 1.0 4.0 0.00 0.00 0.00 25 1022.6
20260830154555 64 0 0.0 0.0 0.00 0.00 0.00 26 1022.6
20260830153051 64 0 0.0 0.0 0.00 0.00 0.00 26 1022.6
20260830151543 64 0 0.0 2.0 0.00 0.00 0.00 28 1022.5
20260830150112 61 0 0.0 2.0 0.00 0.00 0.00 30 1022.4
20260830144547 57 285 0.0 2.0 0.00 0.00 0.00 33 1022.4
20260830143048 55 285 0.0 2.0 0.00 0.00 0.00 33 1022.4
20260830141555 52 285 1.0 2.0 0.00 0.00 0.00 34 1022.2
20260830140053 50 263 2.0 3.0 0.00 0.00 0.00 35 1022.2
20260830134546 50 263 1.0 3.0 0.00 0.00 0.00 34 1022.0
20260830133048 51 263 2.0 3.0 0.00 0.00 0.00 33 1022.0
20260830131555 51 263 1.0 3.0 0.00 0.00 0.00 32 1021.9
20260830130055 51 263 2.0 3.0 0.00 0.00 0.00 32 1021.8
20260830124549 52 263 2.0 3.0 0.00 0.00 0.00 33 1021.8
20260830123045 51 263 2.0 4.0 0.00 0.00 0.00 34 1021.8
20260830121554 51 263 2.0 4.0 0.00 0.00 0.00 36 1021.8
20260830120048 51 263 2.0 4.0 0.00 0.00 0.00 37 1021.7
20260830114603 51 263 2.0 4.0 0.00 0.00 0.00 38 1021.6
20260830113055 51 263 2.0 4.0 0.00 0.00 0.00 38 1021.7
20260830111552 51 263 2.0 4.0 0.00 0.00 0.00 38 1021.8
20260830110045 51 263 2.0 4.0 0.00 0.00 0.00 37 1021.8
20260830104555 51 263 2.0 4.0 0.00 0.00 0.00 37 1021.9
20260830103052 51 263 2.0 4.0 0.00 0.00 0.00 37 1021.8
20260830101552 52 263 2.0 4.0 0.00 0.00 0.00 34 1021.8
20260830100046 52 263 2.0 3.0 0.00 0.00 0.00 34 1021.7
20260830094553 51 263 2.0 3.0 0.00 0.00 0.00 36 1021.7
20260830093054 51 263 1.0 3.0 0.00 0.00 0.00 37 1021.7
20260830091547 51 263 2.0 4.0 0.00 0.00 0.00 38 1021.7
20260830090058 51 263 1.0 4.0 0.00 0.00 0.00 39 1021.6
20260830084555 51 263 2.0 4.0 0.00 0.00 0.00 39 1021.7
20260830083054 51 263 2.0 4.0 0.00 0.00 0.00 39 1021.7
20260830081551 51 263 2.0 4.0 0.00 0.00 0.00 39 1021.8
20260830080051 51 263 2.0 4.0 0.00 0.00 0.00 40 1022.0
20260830074611 52 263 2.0 4.0 0.00 0.00 0.00 43 1022.0
20260830073045 53 263 2.0 4.0 0.00 0.00 0.00 49 1022.0
20260830071600 54 263 1.0 4.0 0.00 0.00 0.00 51 1022.0
20260830070052 54 263 1.0 3.0 0.00 0.00 0.00 55 1022.0
20260830064549 54 263 2.0 4.0 0.00 0.00 0.00 54 1022.2
20260830063045 54 263 2.0 4.0 0.00 0.00 0.00 52 1022.1
20260830061544 54 263 2.0 4.0 0.00 0.00 0.00 49 1022.2
20260830060053 54 263 2.0 4.0 0.00 0.00 0.00 47 1022.4
20260830054553 54 263 2.0 3.0 0.00 0.00 0.00 45 1022.5
20260830053044 54 263 1.0 3.0 0.00 0.00 0.00 45 1022.5
20260830051544 54 263 1.0 4.0 0.00 0.00 0.00 45 1022.5
20260830050054 54 263 2.0 4.0 0.00 0.00 0.00 47 1022.6
20260830044610 54 260 2.0 4.0 0.00 0.00 0.00 48 1022.8
20260830043048 54 261 2.0 4.0 0.00 0.00 0.00 47 1022.8
20260830041614 54 0 0.0 4.0 0.00 0.00 0.00 45 1022.7
20260830040100 55 261 1.0 3.0 0.00 0.00 0.00 44 1022.4
20260830034557 56 261 2.0 4.0 0.00 0.00 0.00 42 1022.2
20260830033045 56 261 1.0 2.0 0.00 0.00 0.00 41 1022.1
20260830031556 57 261 0.0 3.0 0.00 0.00 0.00 38 1022.0
20260830030127 58 260 1.0 2.0 0.00 0.00 0.00 37 1021.9
20260830024549 59 0 1.0 4.0 0.00 0.00 0.00 35 1022.0
20260830023046 60 260 0.0 3.0 0.00 0.00 0.00 33 1021.9
20260830021546 61 260 0.0 3.0 0.00 0.00 0.00 32 1022.0
20260830020054 62 265 1.0 4.0 0.00 0.00 0.00 33 1021.9
20260830014603 62 266 1.0 5.0 0.00 0.00 0.00 31 1022.0
20260830013105 63 205 2.0 6.0 0.00 0.00 0.00 30 1022.0
20260830011550 64 0 2.0 7.0 0.00 0.00 0.00 30 1021.9
20260830010100 65 234 1.0 5.0 0.00 0.00 0.00 29 1021.9
20260830004557 65 189 2.0 7.0 0.00 0.00 0.00 31 1021.8
20260830003101 66 47 2.0 8.0 0.00 0.00 0.00 29 1021.8
20260830001551 67 183 2.0 10.0 0.00 0.00 0.00 28 1021.7